Showing default

BEIDOU 6, 37210

Orbit data source: Space-Track

BEIDOU 6, 37210 is a payload satellite owned by CNSA (CN) in GEO that was launched on Sun, 31 Oct 2010 UTC via a CHANG ZHENG 3C launch vehicle from the Xichang Space Center, China (XSC). Payloads include a variety of satellites, spacecraft, and rockets equipped with specific instruments for various scientific and technological missions. These include communications satellites like Starlink; space stations such as the ISS; scientific satellites like the Hubble; Earth observation satellites from companies like Planet Labs, Umbra, and HawkEye 360; GPS; miniature CubeSats for education and research; and military/defense satellites.

Not visible in the next 10 days
BEIDOU 6 details
Identifier
37210, 2010-057A
Orbit
GEO
Last TLE update11 hours ago
Origin
Flag of CNCNSA (CN / PRC)
ManufacturerCAST
MissionOperational Defense Navigation
Bus & MotorDFH-3B, FY-25
Mass3,060 kg wet, 1,700 kg dry
Launch date (UTC)
2010-10-31 (14 years ago)
Launch vehicle
CHANG ZHENG 3C
Launch site
Xichang Space Center, China (XSC)
Object type
Payload
Rocket body
Debris
Shape & HBRBox + 2 Pan, 18 m
Radar Cross Section13.998 m², Large (>1 m²)

Expand to show TLE details & history

TLE from 11 hours ago
0 BEIDOU 6
1 37210U 10057A   24361.22496166 -.00000086  00000-0  00000-0 0  9993
2 37210   2.3127  70.2857 0009327 189.5180  76.4246  1.00271868 51897
Epoch: 2024-12-26T05:23Z
Definitive object data (Epoch: 2024-12-26T05:23:56.687Z)
Latitude-2.31835°
Longitude160.1313°
Altitude35,777.104 km
Speed3.075 km/s
True Right ascension22h 25m 17s
True Declination-2° 18' 58"
Sunlit
Object was in daylight at TLE epoch
Visualization TLE readout
Latitude2.16512°
Longitude-37.76514°
Altitude35,806.403 km
Speed3.073 km/s
Apparent Right ascension08h 47m 33s
Apparent Declination-3° 18' 37"
Sunlit
Object is in daylight
Visualization observer readout
Local Sidereal Time15:33:33
Azimuth274.874° WNW
Elevation-10.935°
Doppler factor1
Orbital elements
Apogee altitude35,826.968 km
Perigee altitude35,748.312 km
Semi-major axis42,165.777 km
Eccentricity0.0009327
Inclination2.3127°
RAAN70.2857°
Arg. of periapsis189.518°
True anomaly76.52852°
Mean anomaly76.4246°
Eccentric anomaly76.47656°
Mean motion0.25067 °/min
BSTARUnknown
Orbital period1436.15 mins
Loading historical data...
37210 neighbors
Authenticating...
Loading maneuver chart data...
Loading historical data...
Loading historical data...
Loading historical data...
Loading historical data...
Loading historical data...
Loading historical data...
Loading historical data...

BEIDOU 6 Visibility forecast

Observer location: undefined°, undefined

BEIDOU 6 is not visible in the next 10 days
Span
Click to sort rows by Start time (UTC) header in descending order
Start Az.
Max El. time (UTC)
Max El. Az.
Max El.
End time (UTC)
End Az.
|